Location: Unspecified
(38.0794°N, 0.0000°E)
Time: 02:35:30
(UTC+00:00)

ACS3 Solar Sail - Visible Passes

Search period start: 05 April 2026 00:00
Search period end: 15 April 2026 00:00
Orbit: 874 x 980 km, 97.2° (Epoch: 29 March)

Date Brightness Start Highest point End Pass type
(mag) Time Alt. Az. Time Alt. Az. Time Alt. Az.
5 Apr 4.4 00:13:01 10° NE 00:13:20 11° NE 00:13:20 11° NE visible
5 Apr 3.4 01:54:27 10° N 01:56:56 25° N 01:56:56 25° N visible
6 Apr 4.2 00:22:45 10° NE 00:23:41 14° NE 00:23:41 14° NE visible
6 Apr 3.4 02:04:42 10° N 02:07:17 25° NNW 02:07:17 25° NNW visible
7 Apr 4.1 00:32:31 10° NNE 00:33:58 17° NE 00:33:58 17° NE visible
7 Apr 3.4 02:14:56 10° N 02:17:34 23° NNW 02:17:34 23° NNW visible
8 Apr 3.9 00:42:18 10° NNE 00:44:12 20° NE 00:44:12 20° NE visible
8 Apr 3.5 02:25:09 10° NNW 02:27:47 22° NNW 02:27:47 22° NNW visible
9 Apr 3.7 00:52:05 10° NNE 00:54:22 23° NNE 00:54:22 23° NNE visible
9 Apr 3.5 02:35:24 10° NNW 02:37:56 19° NW 02:37:56 19° NW visible
10 Apr 3.5 01:01:52 10° NNE 01:04:28 27° NNE 01:04:28 27° NNE visible
10 Apr 3.6 02:45:40 10° NNW 02:48:03 17° NW 02:48:03 17° NW visible
11 Apr 3.3 01:11:39 10° NNE 01:14:31 30° NNE 01:14:31 30° NNE visible
11 Apr 3.7 02:56:02 10° NNW 02:58:05 14° NW 02:58:05 14° NW visible
12 Apr 3.2 01:21:23 10° N 01:24:30 33° N 01:24:30 33° N visible
12 Apr 3.8 03:06:37 10° NW 03:08:04 12° NW 03:08:04 12° NW visible
12 Apr 4.3 23:50:44 10° NE 23:50:52 10° NE 23:50:52 10° NE visible
13 Apr 3.1 01:31:07 10° N 01:34:26 34° N 01:34:26 34° N visible
13 Apr 4.2 23:59:45 10° NE 00:00:45 13° NE 00:00:45 13° NE visible
14 Apr 3.0 01:40:51 10° N 01:44:19 35° NNW 01:44:19 35° NNW visible
